User: anonymous   Login
Location: Unspecified
(0.0000°N, 0.0000°E)
Time: 09:27:56
(UTC+01:00)
Language:

ATLAS 2AS CENTAUR R/B - Orbit

View from above orbital plane
View from above orbital plane
View from above satellite
View from above satellite

Ground track
Ground track

The orbit data is extracted from the following two-line orbital elements,

1 28096U 03054B   17015.19562543 0.00000000  00000-0  00000-0 0    09
2 28096  63.6705  84.4876 0267715 267.7426  92.2574 13.40819805    01
Epoch (UTC): 15 January 2017 04:41:42
Eccentricity: 0.0267715
inclination: 63.6705°
perigee height: 906 km
apogee height: 1306 km
right ascension of ascending node: 84.4876°
argument of perigee: 267.7426°
revolutions per day: 13.40819805
mean anomaly at epoch: 92.2574°
orbit number at epoch: 0

The dashed part of the orbit path shows where the satellite is in the earth's shadow,  

DLR